Regional Weather Roundup
Issued by NWS Little Rock, AR

Home | Current Version | Previous Version | Text Only | Print | Product List | Glossary Off
Versions: 1 2 3 4 5 6 7 8 9 10 11 12 13 14 15 16 17 18 19 20 21 22 23 24 25 26 27 28 29 30 31 32 33 34 35 36 37 38 39 40 41 42 43 44 45 46 47 48 49 50

000
ASUS44 KLZK 050405
RWRLZK

WEATHER ROUNDUP FOR ARKANSAS
NATIONAL WEATHER SERVICE LITTLE ROCK AR
1100 PM CDT FRI SEP 04 2015

NOTE: "FAIR" INDICATES FEW OR NO CLOUDS BELOW 12,000 FEET WITH NO
SIGNIFICANT WEATHER AND/OR OBSTRUCTIONS TO VISIBILITY.

ARZ001-003-010-029-050500-
NORTHWEST ARKANSAS

CITY           SKY/WX    TMP DP  RH WIND       PRES   REMARKS
FAYETTEVILLE   CLEAR     70  70 100 CALM      30.03S
FORT SMITH     CLEAR     82  68  62 CALM      29.97S HX  85
HARRISON       CLEAR     75  68  78 SE3       30.06R
BENTONVILLE    CLEAR     79  66  65 SE6       30.04S
ROGERS         CLEAR     76  72  87 SE6       30.04S
SILOAM SPGS    CLEAR     77  64  65 E5        30.01S
HIGHFILL       CLEAR     75  70  84 CALM      30.03R
$$

ARZ004-005-016-050500-
NORTH CENTRAL ARKANSAS

CITY           SKY/WX    TMP DP  RH WIND       PRES   REMARKS
BATESVILLE     CLEAR     75  70  83 CALM      30.02S
FLIPPIN        CLEAR     75  66  73 CALM      30.01S
MTN HOME       CLEAR     78  67  68 SE3       30.03S
$$

ARZ040-041-050500-
WEST CENTRAL ARKANSAS

CITY           SKY/WX    TMP DP  RH WIND       PRES   REMARKS
MENA           CLEAR     75  70  83 CALM      30.02S
MOUNT IDA      CLEAR     75  69  81 CALM      29.99R
$$

ARZ009-017-025-026-028-050500-
NORTHEAST ARKANSAS

CITY           SKY/WX    TMP DP  RH WIND       PRES   REMARKS
JONESBORO      CLEAR     74  72  93 NE3       30.01S
NEWPORT        CLEAR     76  73  90 NE5       30.02R
WALNUT RIDGE   CLEAR     77  70  78 E7        30.02R
BLYTHEVILLE    CLEAR     76  72  87 CALM      30.02R
$$

ARZ022-023-033-042-044-050500-
CENTRAL ARKANSAS

CITY           SKY/WX    TMP DP  RH WIND       PRES   REMARKS
LITTLE ROCK    CLEAR     82  68  62 CALM      30.00R HX  85
N LITTLE ROCK  CLEAR     80  72  75 E3        30.00R
JACKSONVILLE   CLEAR     76  70  83 CALM      30.00R
SEARCY         CLEAR     75  72  90 CALM      30.01F
HOT SPRINGS    CLEAR     82  68  62 E3        30.00R HX  85
RUSSELLVILLE   CLEAR     83  67  58 E3        29.99R HX  85
$$

ARZ036-050500-
EAST ARKANSAS

CITY           SKY/WX    TMP DP  RH WIND       PRES   REMARKS
WEST MEMPHIS   CLEAR     78  74  87 E3        29.99S
$$

ARZ050-053-066-070-073-050500-
SOUTHWEST ARKANSAS

CITY           SKY/WX    TMP DP  RH WIND       PRES   REMARKS
ARKADELPHIA    FAIR      76  75  96 CALM      29.98S
CAMDEN         CLEAR     75  70  83 CALM      29.97S HAZE
TEXARKANA      CLEAR     80  70  71 CALM      29.97R
EL DORADO      CLEAR     77  71  82 CALM      29.97R
DE QUEEN       CLEAR     74  73  97 E3        29.95S
$$

ARZ056-057-069-050500-
SOUTHEAST ARKANSAS

CITY           SKY/WX    TMP DP  RH WIND       PRES   REMARKS
PINE BLUFF     CLEAR     79  71  76 CALM      29.99R
STUTTGART      CLEAR     81  68  65 E7        30.00S
MONTICELLO     CLEAR     79  75  87 CALM      29.98S

$$





USA.gov is the U.S. government's official web portal to all federal, state and local government web resources and services.